Location: Complexul Astronomic Baia Mare
(47.6577°N, 23.5639°E)
Time: 06:44:43
(UTC+03:00)

ISS - Pass Details

Date: 16 May 2017
Orbit: 402 x 408 km, 51.6° (Epoch: 29 May)

Event Time Altitude Azimuth Distance (km) Brightness Sun altitude
Exits shadow 05:03:53 - 281° (WNW) 2,374 -0.3 -6.8°
Rises 05:03:59 0° 282° (WNW) 2,328 -0.4 -6.8°
Reaches altitude 10° 05:06:10 10° 290° (WNW) 1,466 -1.3 -6.5°
Maximum altitude 05:09:17 39° 1° (N) 626 -2.5 -6.1°
Drops below altitude 10° 05:12:23 10° 72° (ENE) 1,462 0.4 -5.7°
Sets 05:14:33 0° 81° (E) 2,320 1.3 -5.4°
